Weather History for KHRI - November, 2011

Change the Weather History Date:

Wednesday, November 16, 2011

  Actual Average Record
Temperature  
Mean Temperature 27 °F -  
Max Temperature 35 °F 50 °F 66 °F (1965)
Min Temperature 19 °F 33 °F -7 °F (1955)
Degree Days  
Heating Degree Days 38    
Moisture  
Dew Point 28 °F    
Average Humidity 90    
Maximum Humidity 96    
Minimum Humidity 72    
Precipitation  
Precipitation 0.05 in - - ()
Sea Level Pressure  
Sea Level Pressure 30.07 in    
Wind  
Wind Speed 2 mph (WSW)    
Max Wind Speed 7 mph    
Max Gust Speed -    
Visibility 8 miles    
Events Rain , Snow    
Averages and records for this station are not official NWS values.
T = Trace of Precipitation, MM = Missing Value Source: NWS Daily Summary

Daily Weather History Graph

Daily Weather History Graph

Search for Another Location

Airport or City:

Trip Planner

Search our weather history database for the weather conditions in past years. The results will help you decide how hot, cold, wet, or windy it might be!

Date:

Astronomy

Nov. 16, 2011 Rise Set
Actual Time 6:58 AM PST 4:24 PM PST
Civil Twilight 6:25 AM PST 4:57 PM PST
Nautical Twilight 5:49 AM PST 5:33 PM PST
Astronomical Twilight 5:14 AM PST 6:08 PM PST
Moon 9:47 PM PST (11/16) 11:35 AM PST (11/16)
Length of Visible Light 10h 31m
Length of Day
9h 26m
Waning Gibbous, 69% of the Moon is Illuminated
Nov 16
Waning Gibbous
Nov 18
Last Quarter
Nov 24
New
Dec 2
First Quarter
Dec 10
Full

Hourly Weather History & Observations

Time (PST) Temp. Windchill Dew Point Humidity Pressure Visibility Wind Dir Wind Speed Gust Speed Precip Events Conditions
12:53 AM 19.0 °F 13.9 °F 17.1 °F 92% 30.31 in 10.0 mi East 3.5 mph - N/A   Clear
1:53 AM 21.9 °F - 19.9 °F 92% 30.30 in 10.0 mi Calm Calm - N/A   Clear
2:53 AM 21.0 °F 12.4 °F 18.0 °F 88% 30.28 in 10.0 mi SE 6.9 mph - N/A   Clear
4:53 AM 19.0 °F - 17.1 °F 92% 30.27 in 10.0 mi Calm Calm - N/A   Clear
5:53 AM 21.0 °F 14.6 °F 18.0 °F 88% 30.27 in 10.0 mi SSE 4.6 mph - N/A   Clear
6:53 AM 21.9 °F 15.7 °F 19.9 °F 92% 30.27 in 10.0 mi South 4.6 mph - N/A   Clear
8:53 AM 28.9 °F - 26.1 °F 89% 30.25 in 10.0 mi Calm Calm - N/A   Clear
9:53 AM 30.9 °F - 27.0 °F 85% 30.22 in 10.0 mi Calm Calm - N/A   Clear
10:53 AM 33.1 °F - 28.0 °F 82% 30.20 in 10.0 mi Calm Calm - N/A   Partly Cloudy
11:53 AM 35.1 °F 31.0 °F 27.0 °F 72% 30.17 in 10.0 mi West 4.6 mph - N/A   Overcast
12:53 PM 35.1 °F 31.0 °F 28.9 °F 78% 30.17 in 7.0 mi West 4.6 mph - 0.00 in Rain Light Rain
1:18 PM 33.8 °F - 30.2 °F 87% 30.13 in 2.5 mi Calm Calm - 0.01 in Snow Light Snow
1:26 PM 33.8 °F 30.8 °F 30.2 °F 87% 30.12 in 5.0 mi NNE 3.5 mph - 0.01 in Rain Light Rain
1:53 PM 34.0 °F - 32.0 °F 92% 30.13 in 5.0 mi Calm Calm - 0.03 in Rain Light Rain
2:32 PM 33.8 °F 28.6 °F 32.0 °F 93% 30.08 in 7.0 mi NE 5.8 mph - 0.02 in Rain Light Rain
2:53 PM 33.1 °F 28.7 °F 30.0 °F 89% 30.09 in 10.0 mi North 4.6 mph - 0.02 in Rain Light Rain
4:53 PM 33.1 °F - 32.0 °F 96% 30.03 in 10.0 mi Calm Calm - N/A   Overcast
5:07 PM 33.8 °F 30.8 °F 32.0 °F 93% 30.00 in 10.0 mi SSW 3.5 mph - N/A   Overcast
5:19 PM 33.8 °F 29.6 °F 30.2 °F 87% 29.99 in 10.0 mi WSW 4.6 mph - N/A   Overcast
5:53 PM 33.1 °F - 32.0 °F 96% 29.99 in 10.0 mi Calm Calm - N/A   Overcast
6:23 PM 33.8 °F 30.8 °F 32.0 °F 93% 29.95 in 8.0 mi West 3.5 mph - N/A   Overcast
6:53 PM 33.1 °F 30.0 °F 32.0 °F 96% 29.96 in 8.0 mi WNW 3.5 mph - N/A   Overcast
7:53 PM 33.1 °F - 32.0 °F 96% 29.92 in 6.0 mi Calm Calm - N/A   Overcast
8:13 PM 33.8 °F - 32.0 °F 93% 29.88 in 6.0 mi Calm Calm - N/A   Overcast
8:53 PM 33.1 °F - 32.0 °F 96% 29.88 in 8.0 mi Calm Calm - N/A   Overcast
9:53 PM 34.0 °F - 32.0 °F 92% 29.83 in 8.0 mi Calm Calm - N/A   Overcast
10:03 PM 33.8 °F - 32.0 °F 93% 29.81 in 6.0 mi Calm Calm - N/A   Overcast
10:53 PM 34.0 °F - 32.0 °F 92% 29.77 in 7.0 mi Calm Calm - N/A   Overcast
11:53 PM 32.0 °F - 30.9 °F 96% 29.71 in 5.0 mi Calm Calm - N/A   Mostly Cloudy